QPF
0.05 0.04 0.02 0.02 0.02 0.02 0.02 0.02 0.03 0.04 0.03 0.03 0.03 0.03 0.03 0.03 0.03 0.05 0.06 0.07 0.08 0.08 0.07 0.07 0.06 0.05 0.05 0.05 0.05 0.04 0.05 0.05 0.04 0.02 0.02 0.03 0.04 0.04 0.04 0.04 0.04 0.04 0.04
0.04 0.03 0.02 0.02 0.02 0.02 0.02 0.04 0.03 0.02 0.03 0.04 0.04 0.03 0.02 0.02 0.04 0.04 0.05 0.06 0.07 0.08 0.07 0.07 0.06 0.05 0.04 0.03 0.03 0.03 0.03 0.04 0.04 0.03 0.02 0.03 0.03 0.06 0.08 0.08 0.07 0.07 0.05
0.03 0.02 0.02 0.02 0.02 0.03 0.03 0.04 0.05 0.04 0.03 0.03 0.03 0.02 0.02 0.02 0.03 0.03 0.03 0.04 0.04 0.04 0.06 0.06 0.05 0.05 0.03 0.02 0.02 0.02 0.02 0.03 0.03 0.03 0.03 0.02 0.03 0.05 0.06 0.06 0.07 0.09 0.08
0.02 0.02 0.02 0.02 0.03 0.03 0.03 0.03 0.03 0.03 0.03 0.03 0.04 0.04 0.04 0.04 0.04 0.04 0.04 0.04 0.03 0.04 0.04 0.05 0.05 0.04 0.03 0.02 0.02 0.01 0.02 0.02 0.02 0.02 0.01 0.02 0.02 0.03 0.03 0.04 0.06 0.07 0.08
0.01 0.02 0.02 0.03 0.03 0.02 0.02 0.02 0.02 0.02 0.02 0.03 0.05 0.06 0.07 0.05 0.04 0.04 0.03 0.03 0.02 0.02 0.02 0.02 0.02 0.02 0.02 0.03 0.03 0.02 0.02 0.02 0.01 0.01 0.01 0.01 0.01 0.01 0.02 0.04 0.06 0.06 0.06
0.02 0.02 0.03 0.04 0.03 0.02 0.03 0.04 0.03 0.02 0.03 0.03 0.03 0.04 0.04 0.04 0.04 0.04 0.03 0.02 0.02 0.01 0.02 0.02 0.03 0.03 0.03 0.04 0.03 0.03 0.03 0.02 0.02 0.02 0.02 0.01 0.02 0.01 0.01 0.02 0.03 0.04 0.05
0.01 0.02 0.02 0.02 0.01 0.01 0.02 0.03 0.03 0.04 0.04 0.04 0.03 0.03 0.03 0.03 0.03 0.04 0.04 0.03 0.03 0.02 0.01 0.02 0.03 0.03 0.04 0.03 0.04 0.04 0.03 0.03 0.03 0.02 0.02 0.02 0.02 0.01 0.02 0.02 0.02 0.03 0.04
0.01 0.01 0.01 0.01 0.01 0.01 0.02 0.02 0.03 0.04 0.05 0.04 0.03 0.03 0.03 0.03 0.04 0.04 0.04 0.04 0.03 0.02 0.02 0.03 0.03 0.03 0.03 0.03 0.03 0.02 0.01 0.02 0.03 0.03 0.03 0.03 0.03 0.03 0.03 0.03 0.03 0.02 0.02
0.01 0.01 0.01 0.01 0.01 0.02 0.02 0.03 0.03 0.04 0.04 0.04 0.04 0.04 0.04 0.04 0.05 0.05 0.04 0.03 0.03 0.03 0.02 0.02 0.02 0.02 0.03 0.03 0.03 0.02 0.02 0.02 0.04 0.04 0.04 0.04 0.03 0.03 0.03 0.04 0.03 0.03 0.02
0.01 0.01 0.01 0.01 0.02 0.02 0.03 0.03 0.04 0.05 0.04 0.04 0.05 0.05 0.04 0.04 0.06 0.07 0.07 0.05 0.03 0.02 0.02 0.02 0.03 0.02 0.02 0.02 0.02 0.02 0.02 0.02 0.02 0.03 0.02 0.02 0.02 0.02 0.02 0.03 0.03 0.04 0.02
0.01 0.01 0.02 0.02 0.03 0.04 0.05 0.05 0.06 0.07 0.06 0.05 0.05 0.04 0.03 0.04 0.05 0.06 0.06 0.03 0.01 0.02 0.01 0.01 0.02 0.02 0.01 0.02 0.02 0.02 0.01 0.01 0.01 0.02 0.01 0.01 0.02 0.02 0.02 0.02 0.03 0.03 0.03
0.03 0.04 0.04 0.04 0.05 0.06 0.06 0.07 0.07 0.07 0.06 0.04 0.02 0.01 0.01 0.02 0.03 0.04 0.03 0.02 0.02 0.02 0.01 0.01 0.01 0.01 0.01 0.01 0.01 0.01 0.01 0.02 0.01 0.02 0.01 0.01 0.01 0.01 0.02 0.03 0.04 0.05 0.05
0.05 0.06 0.06 0.06 0.06 0.06 0.06 0.06 0.06 0.05 0.03 0.02 0.01 0.01 0.01 0.02 0.02 0.03 0.02 0.01 0.01 0.01 0.01 0.01 0.00 0.00 0.00 0.00 0.01 0.02 0.02 0.02 0.01 0.01 0.01 0.01 0.01 0.02 0.02 0.03 0.04 0.04 0.04
0.06 0.05 0.05 0.05 0.05 0.05 0.05 0.04 0.03 0.03 0.02 0.01 0.01 0.01 0.01 0.02 0.02 0.03 0.02 0.01 0.01 0.01 0.01 0.01 0.01 0.00 0.00 0.00 0.00 0.01 0.01 0.01 0.01 0.01 0.01 0.01 0.02 0.03 0.03 0.03 0.03 0.03 0.03
0.06 0.06 0.06 0.05 0.05 0.05 0.04 0.04 0.04 0.03 0.02 0.02 0.01 0.01 0.01 0.01 0.01 0.02 0.03 0.03 0.02 0.02 0.01 0.01 0.01 0.01 0.00 0.00 0.00 0.00 0.00 0.01 0.01 0.02 0.01 0.01 0.02 0.03 0.04 0.04 0.04 0.04 0.04
0.08 0.06 0.05 0.05 0.04 0.06 0.06 0.06 0.05 0.04 0.03 0.02 0.02 0.01 0.01 0.01 0.01 0.01 0.02 0.03 0.03 0.03 0.03 0.02 0.02 0.02 0.01 0.01 0.01 0.01 0.01 0.01 0.01 0.01 0.01 0.02 0.02 0.03 0.03 0.03 0.03 0.03 0.03
0.07 0.06 0.05 0.05 0.06 0.07 0.08 0.08 0.08 0.07 0.05 0.03 0.02 0.02 0.02 0.02 0.02 0.02 0.03 0.03 0.04 0.04 0.04 0.04 0.03 0.03 0.02 0.02 0.02 0.01 0.01 0.01 0.01 0.01 0.02 0.02 0.03 0.03 0.03 0.04 0.04 0.04 0.04
0.06 0.06 0.07 0.06 0.06 0.07 0.06 0.07 0.08 0.06 0.05 0.04 0.04 0.04 0.03 0.03 0.03 0.02 0.02 0.02 0.02 0.03 0.03 0.03 0.04 0.02 0.02 0.02 0.01 0.01 0.01 0.01 0.01 0.02 0.02 0.02 0.02 0.02 0.03 0.04 0.04 0.03 0.03
0.04 0.07 0.11 0.11 0.11 0.10 0.08 0.08 0.08 0.08 0.07 0.06 0.05 0.04 0.04 0.02 0.02 0.01 0.01 0.01 0.01 0.01 0.01 0.01 0.01 0.02 0.02 0.02 0.01 0.01 0.02 0.02 0.03 0.03 0.03 0.02 0.02 0.02 0.02 0.02 0.03 0.03 0.03
0.04 0.06 0.08 0.12 0.13 0.11 0.10 0.10 0.13 0.13 0.11 0.11 0.08 0.05 0.03 0.02 0.01 0.01 0.01 0.01 0.01 0.01 0.00 0.00 0.01 0.01 0.02 0.01 0.01 0.02 0.02 0.03 0.04 0.03 0.02 0.01 0.01 0.01 0.02 0.03 0.03 0.03 0.03
0.04 0.05 0.05 0.05 0.06 0.08 0.09 0.08 0.09 0.11 0.11 0.10 0.07 0.05 0.03 0.02 0.01 0.01 0.01 0.01 0.01 0.01 0.00 0.00 0.00 0.00 0.00 0.00 0.01 0.01 0.02 0.01 0.01 0.01 0.01 0.01 0.01 0.01 0.02 0.02 0.03 0.04 0.04
0.04 0.03 0.03 0.02 0.03 0.04 0.06 0.07 0.06 0.05 0.04 0.04 0.03 0.02 0.02 0.01 0.01 0.01 0.01 0.01 0.01 0.00 0.00 0.00 0.00 0.00 0.01 0.01 0.01 0.01 0.01 0.01 0.01 0.01 0.01 0.01 0.01 0.02 0.02 0.03 0.04 0.05 0.05
0.02 0.02 0.02 0.02 0.01 0.02 0.01 0.01 0.01 0.01 0.01 0.01 0.01 0.00 0.00 0.00 0.00 0.01 0.01 0.01 0.01 0.01 0.01 0.01 0.01 0.01 0.01 0.01 0.01 0.01 0.01 0.02 0.02 0.02 0.02 0.01 0.01 0.02 0.03 0.03 0.04 0.06 0.08
0.02 0.02 0.02 0.01 0.01 0.01 0.01 0.01 0.01 0.00 0.00 0.00 0.00 0.00 0.01 0.00 0.01 0.01 0.01 0.01 0.01 0.01 0.01 0.01 0.01 0.01 0.01 0.01 0.01 0.02 0.02 0.02 0.03 0.03 0.03 0.02 0.02 0.02 0.03 0.04 0.05 0.07 0.08
0.02 0.01 0.01 0.01 0.02 0.02 0.02 0.01 0.01 0.00 0.01 0.01 0.01 0.01 0.01 0.01 0.01 0.01 0.01 0.01 0.01 0.01 0.01 0.01 0.01 0.01 0.01 0.02 0.02 0.01 0.01 0.02 0.02 0.02 0.02 0.02 0.02 0.03 0.04 0.04 0.05 0.07 0.07
0.02 0.03 0.02 0.02 0.02 0.02 0.02 0.02 0.01 0.01 0.01 0.01 0.01 0.01 0.01 0.01 0.01 0.01 0.01 0.02 0.02 0.02 0.02 0.02 0.02 0.02 0.03 0.03 0.03 0.02 0.02 0.02 0.02 0.02 0.01 0.01 0.02 0.03 0.04 0.05 0.05 0.05 0.05
MSLP
1009.13 1009.72 1010.34 1010.92 1011.41 1011.78 1012.03 1012.19 1012.30 1012.40 1012.55 1012.75 1013.01 1013.30 1013.60 1013.87 1014.06 1014.16 1014.18 1014.13 1014.04 1013.95 1013.90 1013.90 1013.96 1014.08 1014.22 1014.36 1014.47 1014.52 1014.50 1014.42 1014.27 1014.08 1013.85 1013.61 1013.36 1013.13 1012.93 1012.76 1012.63 1012.55 1012.54
1008.92 1009.57 1010.23 1010.85 1011.36 1011.74 1012.00 1012.15 1012.23 1012.29 1012.38 1012.52 1012.72 1012.97 1013.23 1013.46 1013.64 1013.75 1013.77 1013.73 1013.65 1013.57 1013.51 1013.50 1013.55 1013.65 1013.80 1013.95 1014.10 1014.21 1014.27 1014.26 1014.19 1014.06 1013.88 1013.67 1013.45 1013.22 1012.99 1012.79 1012.63 1012.53 1012.48
1008.66 1009.37 1010.08 1010.73 1011.27 1011.66 1011.91 1012.04 1012.09 1012.12 1012.15 1012.24 1012.38 1012.58 1012.80 1013.01 1013.18 1013.29 1013.33 1013.31 1013.25 1013.17 1013.11 1013.09 1013.13 1013.22 1013.35 1013.51 1013.68 1013.82 1013.93 1013.98 1013.98 1013.91 1013.80 1013.63 1013.44 1013.22 1013.00 1012.80 1012.62 1012.48 1012.41
1008.32 1009.09 1009.84 1010.51 1011.06 1011.45 1011.70 1011.81 1011.84 1011.83 1011.82 1011.86 1011.96 1012.12 1012.30 1012.50 1012.66 1012.78 1012.84 1012.84 1012.80 1012.73 1012.68 1012.65 1012.66 1012.73 1012.84 1012.99 1013.16 1013.31 1013.45 1013.55 1013.60 1013.60 1013.55 1013.45 1013.30 1013.13 1012.94 1012.74 1012.56 1012.41 1012.31
1007.91 1008.71 1009.48 1010.16 1010.71 1011.09 1011.32 1011.42 1011.43 1011.39 1011.37 1011.38 1011.45 1011.58 1011.74 1011.92 1012.08 1012.20 1012.28 1012.29 1012.27 1012.21 1012.15 1012.11 1012.11 1012.15 1012.23 1012.35 1012.50 1012.65 1012.80 1012.94 1013.04 1013.10 1013.11 1013.08 1013.01 1012.90 1012.76 1012.61 1012.45 1012.30 1012.18
1007.49 1008.29 1009.04 1009.70 1010.22 1010.58 1010.79 1010.88 1010.88 1010.84 1010.81 1010.81 1010.87 1010.97 1011.12 1011.29 1011.44 1011.56 1011.63 1011.65 1011.63 1011.57 1011.51 1011.45 1011.42 1011.42 1011.47 1011.56 1011.68 1011.83 1011.98 1012.14 1012.28 1012.41 1012.50 1012.55 1012.57 1012.54 1012.48 1012.39 1012.28 1012.16 1012.04
1007.12 1007.88 1008.59 1009.19 1009.67 1009.99 1010.18 1010.26 1010.26 1010.23 1010.21 1010.22 1010.27 1010.37 1010.50 1010.64 1010.78 1010.88 1010.93 1010.94 1010.90 1010.83 1010.75 1010.67 1010.61 1010.58 1010.59 1010.65 1010.74 1010.88 1011.03 1011.21 1011.40 1011.58 1011.75 1011.89 1012.00 1012.08 1012.11 1012.10 1012.05 1011.98 1011.88
1006.90 1007.58 1008.21 1008.74 1009.15 1009.43 1009.59 1009.66 1009.68 1009.67 1009.67 1009.69 1009.75 1009.84 1009.95 1010.06 1010.16 1010.22 1010.24 1010.21 1010.14 1010.04 1009.93 1009.82 1009.73 1009.68 1009.66 1009.69 1009.76 1009.88 1010.04 1010.24 1010.46 1010.70 1010.94 1011.17 1011.38 1011.55 1011.68 1011.76 1011.79 1011.78 1011.72
1006.89 1007.48 1008.00 1008.44 1008.77 1009.00 1009.14 1009.21 1009.24 1009.26 1009.28 1009.32 1009.39 1009.47 1009.55 1009.62 1009.67 1009.67 1009.64 1009.56 1009.44 1009.31 1009.17 1009.03 1008.92 1008.84 1008.80 1008.81 1008.87 1008.98 1009.15 1009.36 1009.61 1009.89 1010.19 1010.49 1010.78 1011.04 1011.25 1011.42 1011.53 1011.58 1011.58
1007.12 1007.60 1008.01 1008.35 1008.61 1008.79 1008.91 1008.98 1009.03 1009.08 1009.13 1009.19 1009.26 1009.32 1009.37 1009.39 1009.38 1009.32 1009.22 1009.08 1008.92 1008.74 1008.57 1008.41 1008.28 1008.18 1008.13 1008.13 1008.18 1008.29 1008.46 1008.68 1008.94 1009.25 1009.59 1009.93 1010.28 1010.60 1010.88 1011.12 1011.29 1011.41 1011.46
1007.58 1007.94 1008.25 1008.50 1008.69 1008.83 1008.93 1009.01 1009.08 1009.15 1009.23 1009.30 1009.36 1009.41 1009.42 1009.39 1009.31 1009.19 1009.03 1008.84 1008.63 1008.42 1008.23 1008.05 1007.91 1007.81 1007.76 1007.75 1007.80 1007.90 1008.06 1008.28 1008.55 1008.86 1009.20 1009.57 1009.93 1010.29 1010.61 1010.88 1011.11 1011.27 1011.38
1008.18 1008.44 1008.66 1008.83 1008.97 1009.07 1009.17 1009.25 1009.34 1009.43 1009.52 1009.60 1009.66 1009.67 1009.65 1009.57 1009.44 1009.27 1009.06 1008.83 1008.59 1008.37 1008.16 1007.99 1007.85 1007.75 1007.70 1007.69 1007.74 1007.83 1007.98 1008.18 1008.42 1008.72 1009.05 1009.40 1009.76 1010.12 1010.45 1010.74 1010.99 1011.18 1011.33
1008.84 1009.02 1009.16 1009.28 1009.37 1009.45 1009.54 1009.63 1009.72 1009.82 1009.92 1009.99 1010.03 1010.02 1009.96 1009.85 1009.68 1009.47 1009.24 1008.99 1008.75 1008.52 1008.32 1008.16 1008.03 1007.94 1007.90 1007.89 1007.92 1008.00 1008.13 1008.31 1008.53 1008.79 1009.08 1009.41 1009.74 1010.07 1010.39 1010.68 1010.93 1011.15 1011.32
1009.46 1009.58 1009.66 1009.73 1009.79 1009.86 1009.93 1010.01 1010.10 1010.20 1010.28 1010.34 1010.35 1010.32 1010.24 1010.10 1009.91 1009.69 1009.46 1009.21 1008.98 1008.77 1008.59 1008.45 1008.34 1008.26 1008.22 1008.21 1008.24 1008.30 1008.40 1008.55 1008.73 1008.96 1009.22 1009.50 1009.80 1010.10 1010.40 1010.67 1010.92 1011.14 1011.33
1009.97 1010.04 1010.08 1010.11 1010.14 1010.18 1010.23 1010.30 1010.37 1010.44 1010.49 1010.52 1010.51 1010.45 1010.35 1010.20 1010.01 1009.80 1009.58 1009.36 1009.16 1008.98 1008.83 1008.70 1008.61 1008.54 1008.50 1008.48 1008.50 1008.55 1008.63 1008.75 1008.90 1009.10 1009.33 1009.59 1009.86 1010.14 1010.41 1010.68 1010.92 1011.15 1011.35
1010.33 1010.36 1010.36 1010.36 1010.36 1010.37 1010.38 1010.41 1010.44 1010.47 1010.48 1010.47 1010.42 1010.34 1010.21 1010.06 1009.88 1009.69 1009.50 1009.32 1009.15 1009.00 1008.87 1008.77 1008.69 1008.62 1008.58 1008.55 1008.55 1008.58 1008.65 1008.75 1008.90 1009.08 1009.30 1009.55 1009.81 1010.09 1010.36 1010.63 1010.88 1011.12 1011.34
1010.55 1010.53 1010.50 1010.46 1010.42 1010.39 1010.36 1010.33 1010.31 1010.28 1010.24 1010.18 1010.09 1009.97 1009.84 1009.68 1009.52 1009.35 1009.19 1009.03 1008.90 1008.77 1008.66 1008.57 1008.48 1008.41 1008.35 1008.32 1008.30 1008.32 1008.38 1008.48 1008.63 1008.82 1009.05 1009.31 1009.59 1009.89 1010.18 1010.47 1010.75 1011.02 1011.27
1010.64 1010.58 1010.51 1010.43 1010.35 1010.27 1010.19 1010.11 1010.03 1009.93 1009.83 1009.71 1009.58 1009.44 1009.28 1009.12 1008.97 1008.81 1008.67 1008.54 1008.42 1008.30 1008.19 1008.09 1007.99 1007.90 1007.82 1007.77 1007.74 1007.75 1007.80 1007.91 1008.07 1008.28 1008.54 1008.83 1009.15 1009.48 1009.82 1010.16 1010.49 1010.80 1011.09
1010.66 1010.56 1010.45 1010.33 1010.21 1010.08 1009.95 1009.82 1009.67 1009.52 1009.36 1009.19 1009.01 1008.84 1008.66 1008.49 1008.33 1008.19 1008.05 1007.92 1007.79 1007.67 1007.54 1007.41 1007.28 1007.16 1007.05 1006.97 1006.92 1006.92 1006.97 1007.09 1007.27 1007.50 1007.79 1008.13 1008.49 1008.87 1009.27 1009.66 1010.04 1010.41 1010.76
1010.63 1010.50 1010.36 1010.21 1010.05 1009.89 1009.72 1009.53 1009.34 1009.14 1008.93 1008.72 1008.51 1008.30 1008.11 1007.92 1007.75 1007.59 1007.44 1007.29 1007.14 1006.98 1006.82 1006.65 1006.48 1006.31 1006.16 1006.05 1005.98 1005.96 1006.01 1006.13 1006.32 1006.57 1006.89 1007.25 1007.65 1008.07 1008.51 1008.96 1009.40 1009.83 1010.25
1010.59 1010.43 1010.27 1010.11 1009.93 1009.75 1009.55 1009.35 1009.12 1008.90 1008.66 1008.42 1008.18 1007.95 1007.73 1007.53 1007.33 1007.14 1006.96 1006.77 1006.58 1006.37 1006.16 1005.93 1005.71 1005.49 1005.31 1005.15 1005.06 1005.02 1005.05 1005.16 1005.34 1005.60 1005.91 1006.28 1006.69 1007.14 1007.60 1008.08 1008.56 1009.05 1009.53
1010.56 1010.40 1010.23 1010.06 1009.89 1009.71 1009.51 1009.30 1009.08 1008.84 1008.59 1008.34 1008.09 1007.85 1007.61 1007.38 1007.15 1006.92 1006.69 1006.46 1006.20 1005.94 1005.66 1005.38 1005.10 1004.84 1004.60 1004.42 1004.29 1004.22 1004.23 1004.31 1004.47 1004.69 1004.98 1005.32 1005.70 1006.13 1006.59 1007.07 1007.58 1008.10 1008.62
1010.57 1010.42 1010.27 1010.12 1009.96 1009.80 1009.63 1009.43 1009.23 1009.00 1008.76 1008.52 1008.26 1008.01 1007.75 1007.49 1007.23 1006.95 1006.67 1006.37 1006.06 1005.73 1005.39 1005.05 1004.73 1004.42 1004.14 1003.92 1003.75 1003.66 1003.63 1003.66 1003.77 1003.94 1004.16 1004.44 1004.77 1005.14 1005.55 1006.00 1006.49 1007.02 1007.57
1010.67 1010.54 1010.42 1010.30 1010.17 1010.05 1009.90 1009.74 1009.56 1009.36 1009.14 1008.90 1008.65 1008.39 1008.12 1007.83 1007.52 1007.20 1006.87 1006.51 1006.13 1005.74 1005.35 1004.96 1004.58 1004.24 1003.93 1003.68 1003.48 1003.35 1003.27 1003.26 1003.30 1003.39 1003.53 1003.71 1003.94 1004.22 1004.55 1004.94 1005.38 1005.87 1006.42
1010.89 1010.79 1010.70 1010.62 1010.54 1010.44 1010.33 1010.21 1010.06 1009.88 1009.68 1009.46 1009.21 1008.94 1008.64 1008.32 1007.98 1007.61 1007.21 1006.79 1006.36 1005.91 1005.47 1005.03 1004.63 1004.25 1003.92 1003.65 1003.42 1003.25 1003.14 1003.06 1003.03 1003.04 1003.08 1003.15 1003.27 1003.43 1003.65 1003.94 1004.30 1004.74 1005.25
1011.28 1011.22 1011.16 1011.11 1011.06 1010.99 1010.91 1010.80 1010.68 1010.52 1010.33 1010.11 1009.85 1009.57 1009.25 1008.89 1008.50 1008.08 1007.63 1007.16 1006.67 1006.17 1005.68 1005.22 1004.78 1004.38 1004.04 1003.74 1003.50 1003.31 1003.15 1003.02 1002.92 1002.84 1002.78 1002.74 1002.73 1002.78 1002.88 1003.06 1003.32 1003.67 1004.12
Thickness
5766 5764 5761 5759 5757 5755 5753 5751 5749 5748 5746 5745 5743 5741 5740 5738 5736 5734 5733 5731 5729 5727 5725 5723 5721 5720 5719 5717 5716 5714 5713 5711 5709 5712 5713 5714 5714 5714 5713 5712 5712 5710 5710
5764 5762 5759 5756 5754 5751 5749 5748 5746 5743 5742 5740 5739 5737 5736 5734 5732 5730 5728 5726 5723 5721 5719 5718 5716 5715 5713 5711 5710 5709 5708 5707 5705 5705 5706 5707 5707 5708 5707 5707 5706 5705 5704
5762 5758 5755 5752 5750 5748 5745 5743 5741 5739 5737 5735 5734 5732 5730 5729 5727 5725 5722 5720 5718 5716 5714 5712 5710 5708 5706 5705 5704 5703 5702 5702 5700 5699 5699 5700 5700 5700 5700 5700 5700 5698 5698
5758 5754 5751 5749 5746 5743 5741 5738 5736 5734 5732 5730 5728 5727 5725 5723 5721 5719 5716 5713 5711 5710 5708 5706 5704 5702 5701 5699 5699 5697 5696 5695 5693 5692 5692 5692 5692 5693 5691 5691 5691 5691 5690
5753 5750 5747 5744 5742 5739 5736 5734 5731 5729 5728 5725 5722 5720 5719 5717 5715 5712 5709 5707 5704 5702 5700 5699 5698 5697 5695 5694 5693 5691 5690 5688 5686 5685 5685 5685 5684 5684 5683 5684 5683 5683 5683
5749 5746 5743 5740 5737 5734 5731 5729 5726 5724 5722 5719 5716 5713 5711 5710 5708 5705 5702 5700 5697 5695 5693 5691 5691 5689 5688 5687 5686 5685 5683 5682 5680 5679 5678 5677 5678 5677 5677 5677 5675 5674 5673
5744 5741 5739 5736 5733 5729 5726 5723 5720 5717 5715 5712 5709 5706 5704 5702 5700 5697 5694 5692 5690 5688 5686 5684 5683 5682 5680 5679 5678 5677 5676 5675 5674 5673 5672 5672 5671 5672 5670 5669 5668 5667 5666
5739 5736 5733 5731 5727 5724 5720 5716 5713 5711 5708 5704 5702 5699 5696 5694 5692 5689 5687 5684 5682 5680 5678 5677 5675 5673 5672 5670 5669 5668 5668 5668 5667 5666 5666 5666 5666 5666 5664 5663 5661 5660 5660
5733 5730 5728 5725 5721 5717 5713 5710 5707 5704 5700 5697 5693 5690 5687 5685 5683 5681 5678 5675 5672 5670 5669 5668 5666 5665 5664 5662 5661 5660 5659 5660 5660 5659 5659 5658 5658 5658 5656 5655 5653 5651 5651
5727 5724 5722 5718 5714 5711 5707 5703 5699 5696 5692 5689 5685 5681 5679 5677 5675 5672 5669 5666 5664 5662 5660 5659 5657 5655 5654 5653 5652 5651 5650 5650 5650 5651 5650 5650 5649 5649 5648 5646 5645 5643 5642
5721 5717 5714 5711 5707 5704 5699 5695 5691 5686 5682 5679 5675 5673 5671 5668 5666 5663 5661 5658 5656 5653 5651 5649 5648 5646 5644 5643 5642 5641 5641 5641 5640 5640 5640 5640 5640 5640 5639 5637 5636 5635 5634
5712 5708 5705 5702 5699 5695 5690 5686 5682 5677 5673 5670 5667 5664 5662 5659 5657 5655 5652 5650 5648 5645 5642 5640 5638 5637 5635 5634 5633 5633 5632 5631 5631 5630 5630 5630 5630 5630 5629 5628 5627 5626 5626
5703 5698 5694 5692 5689 5685 5681 5676 5673 5669 5665 5662 5658 5655 5654 5651 5648 5646 5643 5641 5639 5636 5633 5631 5629 5627 5625 5625 5624 5623 5622 5622 5621 5621 5621 5620 5620 5619 5618 5618 5617 5616 5616
5694 5689 5685 5681 5678 5674 5671 5667 5664 5659 5656 5653 5650 5648 5645 5642 5640 5637 5634 5631 5629 5626 5623 5621 5619 5617 5616 5615 5614 5614 5613 5612 5612 5612 5611 5611 5610 5609 5608 5607 5606 5605 5605
5683 5679 5674 5670 5666 5663 5660 5656 5654 5652 5650 5647 5644 5641 5637 5635 5632 5629 5625 5622 5619 5617 5614 5612 5609 5607 5606 5605 5604 5604 5603 5603 5602 5602 5601 5600 5600 5599 5598 5596 5595 5595 5594
5671 5667 5664 5662 5658 5653 5649 5646 5644 5643 5641 5639 5636 5632 5630 5626 5623 5619 5616 5614 5610 5607 5604 5602 5600 5598 5596 5595 5595 5594 5594 5593 5592 5592 5591 5590 5589 5589 5588 5587 5586 5585 5584
5663 5659 5656 5653 5649 5645 5641 5639 5636 5633 5631 5628 5626 5622 5619 5616 5613 5610 5607 5604 5601 5598 5595 5594 5591 5589 5588 5586 5585 5584 5584 5583 5582 5581 5580 5579 5579 5578 5578 5577 5576 5575 5574
5656 5651 5647 5643 5640 5638 5635 5632 5629 5626 5622 5619 5615 5612 5610 5607 5604 5601 5598 5595 5592 5589 5587 5585 5583 5581 5579 5577 5576 5575 5574 5573 5572 5571 5570 5569 5568 5568 5568 5567 5567 5566 5565
5647 5642 5639 5635 5632 5629 5626 5623 5620 5617 5614 5610 5606 5603 5600 5598 5594 5591 5588 5587 5585 5582 5579 5577 5575 5572 5570 5568 5567 5566 5565 5563 5562 5561 5560 5559 5559 5558 5558 5558 5557 5555 5555
5636 5634 5631 5628 5624 5620 5617 5613 5610 5607 5603 5600 5597 5593 5590 5588 5585 5582 5578 5577 5575 5573 5571 5568 5567 5564 5562 5560 5558 5557 5556 5554 5553 5552 5551 5551 5550 5549 5549 5549 5548 5548 5547
5627 5624 5622 5619 5615 5611 5608 5605 5602 5598 5594 5591 5588 5585 5581 5579 5577 5574 5571 5569 5567 5565 5563 5561 5559 5556 5554 5552 5551 5549 5547 5546 5545 5544 5543 5542 5541 5541 5540 5540 5540 5540 5539
5617 5614 5612 5609 5606 5602 5599 5596 5593 5589 5587 5584 5581 5578 5573 5571 5569 5567 5564 5562 5560 5557 5555 5553 5551 5549 5547 5545 5544 5542 5540 5539 5537 5536 5535 5534 5534 5533 5532 5532 5532 5532 5532
5608 5606 5603 5600 5597 5593 5590 5587 5584 5581 5578 5576 5573 5569 5566 5563 5561 5559 5556 5555 5552 5550 5547 5545 5543 5541 5540 5538 5536 5534 5533 5532 5530 5529 5528 5528 5527 5526 5526 5526 5526 5525 5525
5600 5598 5595 5591 5588 5585 5582 5579 5576 5573 5570 5567 5564 5561 5558 5555 5553 5551 5548 5546 5544 5541 5539 5537 5535 5534 5532 5530 5529 5527 5526 5524 5522 5521 5520 5520 5520 5520 5520 5520 5520 5520 5519
5592 5589 5586 5583 5580 5577 5574 5571 5567 5564 5562 5558 5555 5552 5550 5547 5545 5543 5540 5538 5535 5533 5531 5530 5528 5527 5525 5524 5522 5520 5519 5517 5515 5514 5513 5513 5514 5514 5514 5514 5514 5514 5514
5584 5581 5579 5576 5573 5569 5566 5562 5559 5556 5553 5549 5546 5543 5541 5539 5537 5534 5532 5530 5527 5525 5524 5522 5520 5519 5518 5516 5515 5513 5511 5510 5508 5508 5507 5507 5508 5508 5508 5508 5508 5508 5508